Regional Weather Roundup
Issued by NWS

Home | Current Version | Previous Version | Graphics & Text | Print | Product List | Glossary On
Versions: 1 2 3 4 5 6 7 8 9 10 11 12 13 14 15 16 17 18 19 20 21 22 23 24 25 26 27 28 29 30 31 32 33 34 35 36 37 38 39 40 41 42 43 44 45 46 47 48 49 50
968
ASUS43 KMKX 240311
RWRWI

WISCONSIN REGIONAL WEATHER ROUNDUP
NATIONAL WEATHER SERVICE MILWAUKEE/SULLIVAN WI
1000 PM CDT WED MAY 23 2018

NOTE: "FAIR" INDICATES FEW OR NO CLOUDS BELOW 12,000 FEET WITH NO
SIGNIFICANT WEATHER AND/OR OBSTRUCTIONS TO VISIBILITY.

WIZ001-002-006>008-014>016-023>028-240400-
NORTHWEST WISCONSIN

CITY           SKY/WX    TMP DP  RH WIND       PRES   REMARKS
SUPERIOR ARPT  FAIR      51  46  80 CALM      30.10R
ASHLAND        FAIR      57  53  86 W3        30.10R
HAYWARD        MOCLDY    67  62  84 CALM      30.11R
SIREN          FAIR      69  60  73 CALM      30.10R
CUMBERLAND     FAIR      68  55  64 SE5       30.11R
RICE LAKE      FAIR      69  58  69 SE5       30.13R
CHETEK         FAIR      69  61  76 CALM      30.11R
LADYSMITH      FAIR      67  60  77 SE3       30.15R
EAU CLAIRE     FAIR      72  62  71 S6        30.11R
MENOMONIE      FAIR      71  60  67 E3        30.11R
NEW RICHMOND   FAIR      70  60  68 SE5       30.09S
OSCEOLA        FAIR      71  61  69 SE6       30.11R
$$

WIZ003>005-009-010-017-018-240400-
NORTH CENTRAL WISCONSIN

CITY           SKY/WX    TMP DP  RH WIND       PRES   REMARKS
MANITOWISH WTR FAIR      65  58  77 CALM      30.13R
ARBOR VITAE    FAIR      67  58  71 CALM      30.14R
WOODRUFF       FAIR      67  58  71 CALM      30.14R
RHINELANDER    FAIR      65  59  81 SW5       30.15R
EAGLE RIVER    FAIR      66  53  63 SW3       30.14R
LAND O LAKES   FAIR      61  54  79 CALM      30.15R
PHILLIPS       FAIR      63  60  88 CALM      30.14R
TOMAHAWK       FAIR      63  58  84 CALM      30.16R
MEDFORD        FAIR      64  59  83 S3        30.15R
MERRILL        FAIR      65  61  86 CALM      30.15R
$$

WIZ029-030-035-036-043>047-240400-
CENTRAL WISCONSIN

CITY           SKY/WX    TMP DP  RH WIND       PRES   REMARKS
WAUSAU         FAIR      69  61  75 SW5       30.13R
MOSINEE        PTCLDY    66  61  82 S3        30.16R
MARSHFIELD     FAIR      67  62  84 CALM      30.14R
STEVENS POINT  FAIR      63  59  85 CALM      30.16R
WAUPACA        FAIR      68  60  74 CALM      30.15R
WAUTOMA        FAIR      66  63  90 CALM      30.15R
WISC RAPIDS    FAIR      64  61  90 CALM      30.16R
CAMP DOUGLAS   MOCLDY    63  63 100 SE3       30.14R
$$

WIZ011>013-019>022-031-037>040-048>050-240400-
NORTHEAST WISCONSIN

CITY           SKY/WX    TMP DP  RH WIND       PRES   REMARKS
ANTIGO         FAIR      63  58  83 SW6       30.16R
SHAWANO        FAIR      71  58  62 S3        30.14R
OCONTO         FAIR      62  57  82 CALM      30.13R
STURGEON BAY   FAIR      63  56  78 S6        30.15R
GREEN BAY      FAIR      69  59  70 S7        30.15R
MANITOWOC      FAIR      63  48  58 S8        30.17R
APPLETON       MOCLDY    66  54  63 SE6       30.14R
CLINTONVILLE   FAIR      66  57  71 S5        30.14R
OSHKOSH        FAIR      64  59  83 S7        30.15R
$$

WIZ032>034-041-042-053>061-240400-
SOUTHWEST WISCONSIN

CITY           SKY/WX    TMP DP  RH WIND       PRES   REMARKS
LA CROSSE      FAIR      72  63  73 SE3       30.11R
SPARTA         FAIR      65  62  90 CALM      30.14R
VIROQUA        FAIR      70  62  77 SE6       30.15R
BOSCOBEL       FAIR      66  63  90 CALM      30.14R
PRAIRIE DU CHI FAIR      70  62  74 CALM      30.13R
PLATTEVILLE    FAIR      70  63  80 SE6       30.17R
$$

WIZ056-057-062-063-064-067-068-240400-
SOUTH CENTRAL WISCONSIN

CITY           SKY/WX    TMP DP  RH WIND       PRES   REMARKS
REEDSBURG      FAIR      68  63  84 CALM      30.15R
BARABOO/DELLS  FAIR      65  60  85 S5        30.16R
LONE ROCK      FAIR      66  64  93 E5        30.15R
MINERAL POINT  FAIR      72  61  68 E5        30.17R
MADISON        FAIR      67  60  78 CALM      30.16R
MIDDLETON      FAIR      65  62  87 CALM      30.18R
WATERTOWN      FAIR      66  61  83 SE5       30.17R
MONROE         FAIR      70  57  64 S6        30.18R
JANESVILLE     FAIR      68  59  73 SE5       30.17R
$$

WIZ051-052-058>065-066-070>072-240400-
SOUTHEAST WISCONSIN

CITY           SKY/WX    TMP DP  RH WIND       PRES   REMARKS
MILWAUKEE      FAIR      63  50  62 S5        30.18R
WAUKESHA       FAIR      63  45  51 S3        30.20R
MILWAUKEE/TIMM FAIR      64  43  45 S3        30.20R
RACINE         FAIR      58  52  80 S6        30.20R
BURLINGTON     FAIR      64  52  66 CALM      30.19R
KENOSHA        FAIR      59  49  69 S5        30.19R
FOND DU LAC    FAIR      65  55  70 S6        30.17R
SHEBOYGAN      FAIR      59  52  77 SW3       30.17R
WEST BEND      FAIR      61  48  63 CALM      30.18R
JUNEAU         FAIR      68  59  73 CALM      30.18R
$$

LSZ147-162-240400-
LAKE SUPERIOR

STATION/POSITION TIME  TEMP    WIND        PRES    WAVE
                       AIR SEA DIR/SP/G            HT/PER
                 (UTC) (F)     (DEG/KT/KT) (MB)    (FT/S)
W MID LAKE BUOY  0250   44 36  100/  2/  2 1019.1R   0
DEVILS ISLAND    0300   45      40/  4/  4 1019.4R
SAXON HARBOR     0240   54      CALM  /  2 1018.3R
$$

LMZ867-665-643>646-240400-
LAKE MICHIGAN

STATION/POSITION TIME  TEMP    WIND        PRES    WAVE
                       AIR SEA DIR/SP/G            HT/PER
                 (UTC) (F)     (DEG/KT/KT) (MB)    (FT/S)
N MID LAKE BUOY  0250   41 37  180/  8/  8 1020.8R   1
NORTHPORT PIER   0240   55     160/  3/  4 1020.0R
KEWAUNEE LAKESHO 0242   56     200/  3/  5 1020.3R
SHEBOYGAN LAKESH 0300   58     180/  9/ 10 1021.7R
PORT WASHINGTON  0240   55      CALM  /  2 1022.7R
ATWATER BUOY     0207   56 49  160/ 10/ 12 1021.7    1
MILWAUKEE LAKESH 0250   57      90/  1/  1   N/A
S MID LAKE BUOY  0250   48 39  110/  6/  6 1022.8R   0
KENOSHA   LAKESH 0300   57                 1022.0
$$

TC  - TEMPERATURE IN CELSIUS
VSB - VISIBILITY IN STATUTE MILES
WCI - WIND CHILL INDEX
HX  - HEAT INDEX





USA.gov is the U.S. government's official web portal to all federal, state and local government web resources and services.